This is the latest recevied weather packets stored in our database for station/object VA3BOO. If no packets are shown the sender has not sent any weather packets the latest 10 day(s).
| Time | Temp. | Humidity | Pressure | Rain* | Wind** | Luminosity | Snow |
|---|---|---|---|---|---|---|---|
| 1776954005 | 12.78° C | 38% | 1016.9 hPa | 0 mm | - | 519 W/m² | - |
| 1776953705 | 12.78° C | 39% | 1016.9 hPa | 0 mm | - | 535 W/m² | - |
| 1776953406 | 12.22° C | 40% | 1017.1 hPa | 0 mm | - | 518 W/m² | - |
| 1776953105 | 12.22° C | 40% | 1017 hPa | 0 mm | - | 500 W/m² | - |
| 1776952804 | 11.67° C | 39% | 1017 hPa | 0 mm | - | 467 W/m² | - |
| 1776952505 | 11.67° C | 40% | 1017.4 hPa | 0 mm | - | 407 W/m² | - |
| 1776952205 | 11.67° C | 41% | 1017.1 hPa | 0 mm | - | 451 W/m² | - |
| 1776951906 | 11.67° C | 40% | 1017.1 hPa | 0 mm | - | 377 W/m² | - |
| 1776951604 | 11.67° C | 41% | 1017.2 hPa | 0 mm | - | 393 W/m² | - |
| 1776951304 | 11.67° C | 40% | 1017.1 hPa | 0 mm | - | 413 W/m² | - |
| 1776951004 | 11.67° C | 39% | 1017.2 hPa | 0 mm | - | 391 W/m² | - |
| 1776950704 | 11.67° C | 40% | 1017.1 hPa | 0 mm | - | 369 W/m² | - |
| 1776950405 | 11.11° C | 42% | 1017.2 hPa | 0 mm | - | 374 W/m² | - |
| 1776950104 | 11.11° C | 41% | 1017.1 hPa | 0 mm | - | 354 W/m² | - |
| 1776949804 | 11.11° C | 41% | 1017.1 hPa | 0 mm | - | 315 W/m² | - |
| 1776949505 | 11.11° C | 42% | 1017.1 hPa | 0 mm | - | 247 W/m² | - |
| 1776949205 | 11.11° C | 41% | 1017.2 hPa | 0 mm | - | 75 W/m² | - |
| 1776948904 | 11.11° C | 40% | 1017.1 hPa | 0 mm | - | 67 W/m² | - |
| 1776948605 | 10° C | 42% | 1016.9 hPa | 0 mm | - | 67 W/m² | - |
| 1776948304 | 10° C | 42% | 1017.1 hPa | 0 mm | - | 63 W/m² | - |
| 1776948004 | 10° C | 43% | 1017.1 hPa | 0 mm | - | 54 W/m² | - |
| 1776947704 | 10° C | 43% | 1017 hPa | 0 mm | - | 184 W/m² | - |
| 1776947404 | 10° C | 43% | 1017 hPa | 0 mm | - | 59 W/m² | - |
| 1776947104 | 10° C | 43% | 1016.9 hPa | 0 mm | - | 46 W/m² | - |
| 1776946804 | 10° C | 43% | 1016.9 hPa | 0 mm | - | 44 W/m² | - |
* Rain latest hour (hover to see other rain measurements)
** Current wind speed in m/s (hover to see current wind gust speed)